Flag for Canada Weather past 2 weeks in Hay River, Northwest Territories, Canada

Now
19 °F

Passing clouds.


Feels Like: 14 °F
Forecast: 5 / 10 °F
Wind: 3 mph from North

Location: Hay River

Current Time: Mar 5, 2015 at 8:28:59 PM

Latest Report: Mar 5, 2015 at 8:00 PM


Visibility: 15 mi

Pressure: 29.80 "Hg

Humidity: 73%

Dew point: 12 °F

Location of Hay RiverLocation

Historic Weather in Hay River — Graph

°F

Hay River temperature yesterday

Maximum temperature yesterday: 16 °F (at 2:00 PM)
Minimum temperature yesterday: -11 °F (at 12:00 AM)
Average temperature yesterday: -1 °F

Past Weeks' High & Low Weather Summary

 TemperatureHumidityPressure
High34 °F (Mar 5, 4:00 PM)93% (Feb 22, 10:00 AM)30.84 "Hg (Feb 22, 10:00 AM)
Low-29 °F (Feb 21, 2:00 AM)44% (Mar 4, 12:00 PM)29.78 "Hg (Mar 1, 12:00 PM)
Average4 °F73%30.29 "Hg
* Reported Feb 18 7:00 PM — Mar 5 7:00 PM, Hay River, Weather by CustomWeather, © 2015

Note: Actual official high and low records may vary slightly from our data, if they occured in-between our weather recording intervals... More about our weather records

Advertising

Hay River weather history for previous 24 hours

 ConditionsComfort  
Time TempWeatherWind HumidityBarometerVisibility
7:00 PM
Thu, Mar 5
21 °FPassing clouds.2 mph74%29.80 "Hg15 mi
6:00 PM23 °FPartly sunny.2 mph68%29.79 "Hg15 mi
5:00 PM19 °FPartly sunny.9 mph79%29.80 "Hg15 mi
4:00 PM34 °FScattered clouds.5 mph51%29.79 "Hg15 mi
3:00 PM32 °FPassing clouds.5 mph51%29.80 "Hg15 mi
2:00 PM27 °FScattered clouds.7 mph64%29.82 "Hg15 mi
1:00 PM21 °FBroken clouds.13 mph68%29.83 "Hg15 mi
12:00 PM21 °FPartly sunny.6 mph68%29.85 "Hg15 mi
11:00 AM19 °FPartly sunny.3 mph73%29.87 "Hg15 mi
10:00 AM16 °FPartly sunny.5 mph79%29.89 "Hg15 mi
9:00 AM14 °FPartly sunny.2 mph79%29.89 "Hg15 mi
8:00 AM12 °FPartly sunny.No wind79%29.88 "Hg15 mi
7:00 AM12 °FPassing clouds.2 mph73%29.90 "Hg15 mi
6:00 AM9 °FPassing clouds.No wind78%29.89 "Hg15 mi
5:00 AM10 °FPassing clouds.2 mph79%29.88 "Hg15 mi
4:00 AM14 °FPassing clouds.5 mph67%29.88 "Hg15 mi
3:00 AM14 °FOvercast.9 mph67%29.87 "Hg15 mi
2:00 AM12 °FOvercast.10 mph57%29.85 "Hg15 mi
1:00 AM12 °FOvercast.6 mph57%29.85 "Hg15 mi
12:00 AM9 °FOvercast.3 mph66%29.84 "Hg15 mi
11:00 PM
Wed, Mar 4
9 °FOvercast.7 mph61%29.84 "Hg15 mi
10:00 PM5 °FOvercast.6 mph66%29.85 "Hg15 mi
9:00 PM0 °FPartly cloudy.7 mph65%29.85 "Hg15 mi
8:00 PM-4 °FPassing clouds.2 mph77%29.88 "Hg15 mi
Weather by CustomWeather, © 2015

See weather overviewHow to use our weather pages